Meteopurmerend
purmerend
Purmerend - Baaienwijk



My webcam  My webcam


Onweer radar Meer informatie blitzortung!


Regen radar Meer informatie rain snow radar


Bezoek onze andere website:

CandyAppleRed WebdesignWebdesign Purmerend Candy Apple Red

MeteopurmerendBlog

Template documentation
and downloads



We konden geen weer-waarchuwingen ophalen. Ga rechtstreeks naar de Meteoalarm site : www.meteoalarm.eu en controleer daar .

15 daagse weersverwachting Aalborg (DK)

  • Overzicht
  • Per uur
  • 15 dagen
  • Extra
  • Vergelijk
  • Kaarten
  • Dagkaart
  • Meer »
  • Info
  • Statistieken
  • Directe link
    Temp 6h Neerslag Wind  
 04:29     22:19    Daglengte: 17:50 Vandaag
08:00
19°
 
3
14:00
23°
 
3
20:00
23°
0.8 mm
3
 04:30     22:19    Daglengte: 17:49 Morgen
02:00
17°
 
3
08:00
18°
 
2
14:00
19°
4.4 mm
3
20:00
16°
57.7 mm
5
 04:31     22:18    Daglengte: 17:47 Dinsdag 28 Jun
02:00
14°
 
3
08:00
16°
14.9 mm
4
14:00
21°
 
5
20:00
19°
 
4
Locatie info
Region: Nordjylland
Latitude: 57.0494°N
Longitude: 9.9163°E
10 masl
Postcode: 9000
Temp/Neerslag /Baro Onweer/Dauwpunt
    Temp Baro 1h Neerslag Dauwpunt Wind UV Bewolking  
 04:29     22:19    Daglengte: 17:50 Vandaag
04:00
17°
1014.5 hPa
13%
16.3°
2
Windvlaag: 2.7 m/s
52%
05:00
17°
1014.3 hPa
13%
16.4°
2
Windvlaag: 2.4 m/s
71%
06:00
17°
1014.1 hPa
13%
16.6°
2
Windvlaag: 1.4 m/s
73%
07:00
18°
1014.1 hPa
13%
16.5°
2
Windvlaag: 1.9 m/s
84%
08:00
19°
1014.4 hPa
14%
16.3°
3
Windvlaag: 2.4 m/s
82%
09:00
20°
1014.5 hPa
14%
16.3°
4
Windvlaag: 5.5 m/s
59%
10:00
21°
1014.4 hPa
60%
16.5°
4
Windvlaag: 6.1 m/s
84%
11:00
21°
1014.5 hPa
66%
16.8°
4
Windvlaag: 3.7 m/s
62%
12:00
21°
1014.5 hPa
69%
18.3°
4
Windvlaag: 3.5 m/s
86%
13:00
23°
1014.5 hPa
18%
18.2°
4
Windvlaag: 3.6 m/s
86%
14:00
23°
1014.3 hPa
22%
16.9°
3
Windvlaag: 4.2 m/s
76%
15:00
25°
1014.0 hPa
41%
17.4°
3
Windvlaag: 3.9 m/s
62%
16:00
26°
1014.1 hPa 0.3 mm
80%
17.9°
3
Windvlaag: 5 m/s
50% warningclass
17:00
24°
1014.2 hPa
71%
19.7°
3
Windvlaag: 6.1 m/s
73%
18:00
24°
1014.4 hPa 0.6 mm
74%
20.0°
3
Windvlaag: 6 m/s
76% warningclass
19:00
24°
1014.3 hPa
29%
20.0°
2
Windvlaag: 4.9 m/s
37%
20:00
23°
1014.5 hPa
17%
19.6°
3
Windvlaag: 4.1 m/s
56%
21:00
22°
1014.9 hPa
27%
20.3°
2
Windvlaag: 3.7 m/s
75%
22:00
20°
1015.3 hPa
14%
18.5°
3
Windvlaag: -1.6 m/s
20%
23:00
19°
1015.7 hPa
14%
16.6°
2
Windvlaag: -2 m/s
36%
 04:30     22:19    Daglengte: 17:49 Morgen
00:00
18°
1015.9 hPa
14%
15.7°
2
Windvlaag: -1 m/s
62%
01:00
18°
1015.8 hPa
14%
15.0°
3
Windvlaag: -3.3 m/s
35%
02:00
17°
1015.7 hPa
17%
13.9°
3
Windvlaag: -3 m/s
63%
03:00
17°
1015.4 hPa
14%
13.9°
2
Windvlaag: -3.2 m/s
65%
04:00
17°
1015.4 hPa
14%
13.9°
2
Windvlaag: -4.2 m/s
86%
05:00
17°
1015.0 hPa
19%
14.2°
2
Windvlaag: -3.1 m/s
60%
06:00
17°
1014.4 hPa
52%
14.7°
2
Windvlaag: -2.2 m/s
80%
07:00
17°
1014.1 hPa
33%
14.9°
2
Windvlaag: -1.6 m/s
57%
08:00
18°
1014.0 hPa
27%
15.0°
2
Windvlaag: -0.6 m/s
64%
09:00
20°
1014.1 hPa
29%
15.5°
3
Windvlaag: -1.4 m/s
78%
10:00
20°
1014.2 hPa
71%
16.2°
2
Windvlaag: -2.5 m/s
83%
11:00
21°
1013.9 hPa
80%
16.9°
3
Windvlaag: -2.2 m/s
86%
12:00
20°
1013.9 hPa 4.4 mm
82%
17.0°
3
Windvlaag: -1.9 m/s
86%
13:00
20°
1013.8 hPa
82%
15.6°
3
Windvlaag: -1.5 m/s
86%
14:00
19°
1013.8 hPa
82%
14.9°
3
Windvlaag: -2.3 m/s
86%
15:00
19°
1013.6 hPa 6.2 mm
82%
14.2°
3
Windvlaag: -4.5 m/s
86%
16:00
17°
1013.7 hPa 8.3 mm
82%
12.8°
4
Windvlaag: -4.7 m/s
86%
17:00
17°
1013.6 hPa 11.1 mm
82%
12.3°
4
Windvlaag: -6.9 m/s
86%
18:00
17°
1014.0 hPa 11.8 mm
82%
11.9°
5
Windvlaag: -2.5 m/s
86%
19:00
16°
1014.2 hPa 10.9 mm
82%
11.6°
6
Windvlaag: -0.2 m/s
86%
20:00
16°
1014.5 hPa 9.4 mm
82%
11.1°
5
Windvlaag: -0.1 m/s
84%
21:00
16°
1014.5 hPa
68%
11.8°
5
Windvlaag: 0.3 m/s
77%
22:00
16°
1015.2 hPa
68%
12.9°
4
Windvlaag: 0.5 m/s
59%
23:00
14°
1016.7 hPa
74%
12.0°
3
Windvlaag: 1.2 m/s
97%
 04:31     22:18    Daglengte: 17:47 Dinsdag 28 Jun
00:00
14°
1017.1 hPa
21%
12.0°
3
Windvlaag: 3.9 m/s
95%
01:00
14°
1017.0 hPa
21%
12.5°
3
Windvlaag: 4.3 m/s
95%
02:00
14°
1017.0 hPa
24%
12.9°
3
Windvlaag: 4.2 m/s
98%
03:00
14°
1016.8 hPa
29%
13.4°
3
Windvlaag: 4 m/s
96%
04:00
14°
1017.2 hPa
91%
13.3°
3
Windvlaag: 3.6 m/s
95%
05:00
14°
1017.1 hPa 14.9 mm
100%
13.4°
3
Windvlaag: 3.7 m/s
63%
06:00
14°
1017.5 hPa
81%
12.9°
3
Windvlaag: 4 m/s
59%
07:00
14°
1017.9 hPa
23%
12.9°
3
Windvlaag: 5 m/s
27%
08:00
16°
1018.2 hPa
21%
13.2°
4
Windvlaag: 7.4 m/s
11%
09:00
17°
1018.6 hPa
21%
12.7°
4
Windvlaag: 6.2 m/s
12%
10:00
18°
1018.7 hPa
22%
11.7°
4
Windvlaag: 6.1 m/s
54%
11:00
19°
1018.9 hPa
21%
11.1°
5
Windvlaag: 5.6 m/s
7%
12:00
20°
1019.0 hPa
25%
10.7°
5
Windvlaag: 7 m/s
35%
13:00
21°
1018.9 hPa
26%
11.3°
5
Windvlaag: 7.3 m/s
62%
14:00
21°
1018.9 hPa
21%
11.8°
5
Windvlaag: 7.2 m/s
17%
15:00
21°
1019.1 hPa
21%
12.0°
5
Windvlaag: 6.2 m/s
14%
16:00
21°
1019.4 hPa
21%
12.3°
4
Windvlaag: 5.5 m/s
11%
17:00
21°
1019.4 hPa
21%
12.5°
4
Windvlaag: 5.2 m/s
6%
18:00
21°
1019.5 hPa
21%
12.8°
4
Windvlaag: 4.4 m/s
18%
19:00
20°
1019.4 hPa
21%
13.0°
3
Windvlaag: 3.9 m/s
6%
20:00
19°
1019.6 hPa
21%
12.6°
4
Windvlaag: 4.4 m/s
5%
21:00
17°
1019.9 hPa
21%
12.4°
3
Windvlaag: 4.3 m/s
2%
22:00
16°
1020.0 hPa
21%
12.0°
3
Windvlaag: 5.2 m/s
1%
23:00
14°
1020.5 hPa
21%
11.1°
1
Windvlaag: 2.1 m/s
0%
 04:32     22:18    Daglengte: 17:46 Woensdag 29 Jun
00:00
14°
1020.4 hPa
21%
10.8°
1
Windvlaag: 0.9 m/s
1%
01:00
13°
1020.6 hPa
21%
10.5°
1
Windvlaag: 0.5 m/s
0%
02:00
13°
1020.3 hPa
21%
9.9°
1
Windvlaag: 0.7 m/s
0%
Temp/Neerslag /Baro Onweer/Dauwpunt
    Temp Baro Neerslag Dauwpunt Wind Bewolking  
 04:29     22:19    Daglengte: 17:50 Vandaag
05:00
17°
1014.3 hPa   16.4°
2
71%
08:00
19°
1014.4 hPa   16.3°
3
82%
11:00
21°
1014.5 hPa   16.8°
4
62%
14:00
23°
1014.3 hPa   16.9°
3
76%
17:00
24°
1014.2 hPa 0.3 mm 19.7°
3
73% warningclass
20:00
23°
1014.5 hPa 0.6 mm 19.6°
3
56%
23:00
19°
1015.7 hPa   16.6°
2
36%
 04:30     22:19    Daglengte: 17:49 Morgen
02:00
17°
1015.7 hPa   13.9°
3
63%
05:00
17°
1015.0 hPa   14.2°
2
60%
08:00
18°
1014.0 hPa   15.0°
2
64%
11:00
21°
1013.9 hPa   16.9°
3
86%
14:00
19°
1013.8 hPa 4.4 mm 14.9°
3
86%
17:00
17°
1013.6 hPa 25.6 mm 12.3°
4
86%
20:00
16°
1014.5 hPa 32.1 mm 11.1°
5
84%
23:00
14°
1016.7 hPa   12.0°
3
97%
 04:31     22:18    Daglengte: 17:47 Dinsdag 28 Jun
02:00
14°
1017.0 hPa   12.9°
3
98%
05:00
14°
1017.1 hPa 14.9 mm 13.4°
3
63%
08:00
16°
1018.2 hPa   13.2°
4
11%
11:00
19°
1018.9 hPa   11.1°
5
7%
14:00
21°
1018.9 hPa   11.8°
5
17%
17:00
21°
1019.4 hPa   12.5°
4
6%
20:00
19°
1019.6 hPa   12.6°
4
5%
23:00
14°
1020.5 hPa   11.1°
1
0%
 04:32     22:18    Daglengte: 17:46 Woensdag 29 Jun
02:00
13°
1020.3 hPa   9.9°
1
0%
05:00
11°
1020.7 hPa 4.5 mm 8.8°
2
1%
08:00
16°
1020.8 hPa 4.5 mm 10.6°
2
1%
11:00
21°
1020.8 hPa 4.5 mm 10.1°
2
0%
14:00
23°
1020.2 hPa 4.5 mm 10.8°
3
0%
17:00
23°
1019.6 hPa 4.5 mm 11.9°
5
0%
20:00
20°
1019.1 hPa 4.5 mm 12.8°
3
0%
23:00
14°
1019.2 hPa 4.5 mm 10.4°
2
1%
 04:32     22:18    Daglengte: 17:46 Donderdag 30 Jun
02:00
12°
1019.1 hPa 4.5 mm 8.5°
2
1%
05:00
12°
1018.3 hPa 4.5 mm 7.1°
1
0%
08:00
18°
1018.1 hPa 4.5 mm 8.1°
2
0%
11:00
23°
1017.2 hPa 4.5 mm 9.4°
2
0%
14:00
25°
1016.4 hPa 4.5 mm 12.6°
4
0%
17:00
22°
1016.0 hPa 4.5 mm 11.5°
5
0%
20:00
18°
1015.1 hPa 4.5 mm 13.0°
4
0%
23:00
17°
1014.1 hPa 4.5 mm 11.8°
2
1%
 04:33     22:17    Daglengte: 17:44 Vrijdag 01 Jul
02:00
17°
1013.2 hPa 4.5 mm 11.7°
2
1%
05:00
18°
1011.6 hPa 4.5 mm 13.6°
2
1%
08:00
20°
1010.9 hPa 4.6 mm 16.9°
4
1%
11:00
22°
1010.3 hPa 4.6 mm 16.4°
5
1%
14:00
25°
1010.0 hPa 4.6 mm 16.9°
4
1%
17:00
25°
1009.7 hPa 4.6 mm 16.3°
5
1%
20:00
20°
1010.9 hPa 5.0 mm 16.9°
7
1%
23:00
15°
1013.1 hPa 5.3 mm 13.3°
6
1%
 04:34     22:17    Daglengte: 17:43 Zaterdag 02 Jul
02:00
13°
1014.0 hPa 5.3 mm 12.0°
3
1%
05:00
11°
1013.7 hPa 5.3 mm 10.9°
3
0%
08:00
16°
1015.0 hPa 5.3 mm 11.7°
5
0%
11:00
20°
1014.7 hPa 5.3 mm 9.9°
6
1%
14:00
21°
1015.0 hPa 5.3 mm 9.7°
6
1%
17:00
20°
1015.0 hPa 5.4 mm 10.6°
5
1%
20:00
19°
1014.6 hPa 5.7 mm 10.5°
5
1%
23:00
13°
1014.9 hPa 5.7 mm 10.4°
4
0%
 04:35     22:16    Daglengte: 17:41 Zondag 03 Jul
02:00
13°
1013.9 hPa 11.4 mm 10.8°
4
0%
08:00
17°
1012.1 hPa 11.4 mm 11.7°
6
1%
14:00
21°
1010.9 hPa 11.5 mm 7.7°
7
1%
20:00
17°
1010.2 hPa 12.9 mm 9.4°
6
1%
 04:36     22:15    Daglengte: 17:39 Maandag 04 Jul
02:00
11°
1009.2 hPa 13.0 mm 10.8°
5
1%
08:00
14°
1007.2 hPa 13.3 mm 10.2°
6
1%
14:00
19°
1006.9 hPa 15.4 mm 8.4°
10
1%
20:00
15°
1008.2 hPa 15.8 mm 10.0°
11
1%
 04:37     22:14    Daglengte: 17:37 Dinsdag 05 Jul
02:00
13°
1009.0 hPa 15.8 mm 9.8°
11
1%
08:00
16°
1011.0 hPa 15.8 mm 10.1°
11
1%
14:00
19°
1013.3 hPa 15.8 mm 9.7°
11
0%
20:00
16°
1013.9 hPa 16.1 mm 12.0°
9
1%
 04:38     22:14    Daglengte: 17:36 Woensdag 06 Jul
02:00
13°
1015.0 hPa   10.7°
4
49%
08:00
16°
1014.9 hPa 0.2 mm 11.8°
4
49%
14:00
20°
1015.5 hPa 0.4 mm 12.3°
4
49%
20:00
18°
1014.7 hPa 0.5 mm 12.6°
4
50%
 04:40     22:13    Daglengte: 17:33 Donderdag 07 Jul
02:00
13°
1014.5 hPa 0.1 mm 11.3°
3
41%
08:00
16°
1014.2 hPa 0.2 mm 12.3°
2
56%
14:00
20°
1014.7 hPa 0.4 mm 12.2°
3
54%
20:00
18°
1014.0 hPa 0.7 mm 12.0°
3
57%
 04:41     22:12    Daglengte: 17:31 Vrijdag 08 Jul
02:00
13°
1013.9 hPa 0.3 mm 11.4°
3
48%
08:00
16°
1013.5 hPa 0.8 mm 12.4°
3
59%
14:00
20°
1013.7 hPa 1.6 mm 12.2°
3
59%
20:00
18°
1013.2 hPa 1.4 mm 12.5°
4
52%
 04:42     22:11    Daglengte: 17:29 Zaterdag 09 Jul
02:00
13°
1013.2 hPa 0.2 mm 11.0°
3
44%
08:00
16°
1012.6 hPa 0.2 mm 12.1°
4
40%
14:00
20°
1012.5 hPa 0.8 mm 12.1°
4
45%
20:00
18°
1011.9 hPa 1.0 mm 12.3°
4
51%
 04:44     22:10    Daglengte: 17:26 Zondag 10 Jul
02:00
13°
1011.6 hPa 0.1 mm 11.3°
3
50%
08:00
16°
1010.6 hPa 0.7 mm 12.2°
3
56%
14:00
20°
1010.5 hPa 1.5 mm 12.6°
4
60%
20:00
18°
1010.2 hPa 1.2 mm 12.2°
4
50%
 04:45     22:08    Daglengte: 17:23 Maandag 11 Jul
02:00
13°
1010.2 hPa 0.4 mm 11.3°
3
38%
  CAPE Lifted Index Hail Supercell Tornado SRH 3km CL BTM PRES CL TOP PRES Swiss DWD icon SMHI TS
 04:29     22:19    Daglengte: 17:50 Vandaag
04:00 0 J/kg -2.4 K 0 % 0 % 0 % 0 m²/s² 0 0 -1.29 2
05:00 0 J/kg -2.3 K 0 % 0 % 0 % 0 m²/s² 0 0 -1.34 3
06:00 0 J/kg -2.5 K 0 % 0 % 0 % 0 m²/s² 0 0 -1.6 3
07:00 0 J/kg -2.5 K 0 % 0 % 0 % 0 m²/s² 0 0 -1.93 3
08:00 61 J/kg -2.5 K 0 % 0 % 0 % 0 m²/s² 0 0 -2.2 3
09:00 141 J/kg -2.2 K 0 % 0 % 0 % 0 m²/s² 0 0 -1.57 3
10:00 293 J/kg -2.2 K 0 % 0 % 0 % 0 m²/s² 0 0 -1.66 3
11:00 577 J/kg -2.8 K 0 % 0 % 0 % 0 m²/s² 0 0 -2.59 3
12:00 543 J/kg -2.4 K 0 % 0 % 0 % 0 m²/s² 0 0 -2.31 3
13:00 494 J/kg -2.3 K 0 % 0 % 0 % 0 m²/s² 0 0 -2.21 3
14:00 561 J/kg -2.5 K 0 % 0 % 0 % 0 m²/s² 0 0 -2.41 3
15:00 704 J/kg -2.9 K 0 % 0 % 0 % 0 m²/s² 0 0 -2.51 3
16:00 1024 J/kg -3.8 K 0 % 0 % 0 % 0 m²/s² 0 0 -2.9 3
17:00 1102 J/kg -4.1 K 0 % 0 % 0 % 0 m²/s² 0 0 -3.11 3
18:00 1100 J/kg -4.0 K 0 % 0 % 0 % 0 m²/s² 0 0 -2.8 80
19:00 727 J/kg -3.5 K 0 % 0 % 0 % 0 m²/s² 0 0 -2.3 3
20:00 52 J/kg -3.4 K 0 % 0 % 0 % 0 m²/s² 0 0 -2.59 3
21:00 0 J/kg -1.0 K 0 % 0 % 0 % 0 m²/s² 0 0 -0.37 3
22:00 0 J/kg 0.0 K 0 % 0 % 0 % 0 m²/s² 0 0 0.3 2
23:00 0 J/kg -0.1 K 0 % 0 % 0 % 0 m²/s² 0 0 0.2 3
 04:30     22:19    Daglengte: 17:49 Morgen
00:00 0 J/kg -1.6 K 0 % 0 % 0 % 0 m²/s² 0 0 -1.15 3
01:00 0 J/kg -2.1 K 0 % 0 % 0 % 0 m²/s² 0 0 -1.65 3
02:00 0 J/kg -1.7 K 0 % 0 % 0 % 0 m²/s² 0 0 -0.74 3
03:00 1 J/kg -1.5 K 0 % 0 % 0 % 0 m²/s² 0 0 -0.18 3
04:00 1 J/kg -1.1 K 0 % 0 % 0 % 0 m²/s² 0 0 0.07 3
05:00 1 J/kg -1.6 K 0 % 0 % 0 % 0 m²/s² 0 0 -0.7 3
06:00 1 J/kg -1.6 K 0 % 0 % 0 % 0 m²/s² 0 0 -0.49 3
07:00 2 J/kg -0.8 K 0 % 0 % 0 % 0 m²/s² 0 0 0.4 3
08:00 2 J/kg -0.4 K 0 % 0 % 0 % 0 m²/s² 0 0 0.8 3
09:00 0 J/kg -0.6 K 0 % 0 % 0 % 0 m²/s² 0 0 0.6 3
10:00 126 J/kg -0.8 K 0 % 0 % 0 % 0 m²/s² 0 0 0.22 3
11:00 0 J/kg -0.5 K 0 % 0 % 0 % 0 m²/s² 0 0 0.16 61
12:00 0 J/kg 1.7 K 0 % 0 % 0 % 0 m²/s² 0 0 2 61
13:00 0 J/kg -1.1 K 0 % 0 % 0 % 0 m²/s² 0 0 -0.65 61
14:00 0 J/kg -1.0 K 0 % 0 % 0 % 0 m²/s² 0 0 -0.55 3
15:00 1 J/kg -0.9 K 0 % 0 % 0 % 0 m²/s² 0 0 -0.69 61
16:00 1 J/kg -1.0 K 0 % 0 % 0 % 0 m²/s² 0 0 -1 81
17:00 1 J/kg -1.2 K 0 % 0 % 0 % 0 m²/s² 0 0 -1.2 81
18:00 3 J/kg 0.7 K 0 % 0 % 0 % 0 m²/s² 0 0 1.09 81
19:00 1 J/kg 1.8 K 0 % 0 % 0 % 0 m²/s² 0 0 3.36 80
20:00 2 J/kg 3.3 K 0 % 0 % 0 % 0 m²/s² 0 0 5.04 61
21:00 0 J/kg 4.2 K 0 % 0 % 0 % 0 m²/s² 0 0 6.39 3
22:00 0 J/kg 4.1 K 0 % 0 % 0 % 0 m²/s² 0 0 6.35 3
23:00 0 J/kg 5.9 K 0 % 0 % 0 % 0 m²/s² 0 0 7.85 3
 04:31     22:18    Daglengte: 17:47 Dinsdag 28 Jun
00:00 0 J/kg 7.7 K 0 % 0 % 0 % 0 m²/s² 0 0 9.11 3
01:00 0 J/kg 7.8 K 0 % 0 % 0 % 0 m²/s² 0 0 8.1 3
02:00 0 J/kg 7.0 K 0 % 0 % 0 % 0 m²/s² 0 0 7.75 3
03:00 0 J/kg 5.7 K 0 % 0 % 0 % 0 m²/s² 0 0 6.57 3
04:00 0 J/kg 5.5 K 0 % 0 % 0 % 0 m²/s² 0 0 6.61 3
05:00 0 J/kg 6.0 K 0 % 0 % 0 % 0 m²/s² 0 0 7.59 61
06:00 0 J/kg 5.1 K 0 % 0 % 0 % 0 m²/s² 0 0 7.05 3
07:00 0 J/kg 5.3 K 0 % 0 % 0 % 0 m²/s² 0 0 7.58 2
08:00 0 J/kg 4.6 K 0 % 0 % 0 % 0 m²/s² 0 0 6.31 2
09:00 15 J/kg 3.9 K 0 % 0 % 0 % 0 m²/s² 0 0 5.31 2
10:00 25 J/kg 4.6 K 0 % 0 % 0 % 0 m²/s² 0 0 7.06 3
11:00 24 J/kg 5.5 K 0 % 0 % 0 % 0 m²/s² 0 0 10.54 2
12:00 13 J/kg 7.0 K 0 % 0 % 0 % 0 m²/s² 0 0 11.92 2
13:00 21 J/kg 7.6 K 0 % 0 % 0 % 0 m²/s² 0 0 12.97 3
14:00 46 J/kg 7.8 K 0 % 0 % 0 % 0 m²/s² 0 0 14.04 2
15:00 51 J/kg 8.1 K 0 % 0 % 0 % 0 m²/s² 0 0 15 2
16:00 50 J/kg 8.2 K 0 % 0 % 0 % 0 m²/s² 0 0 15.13 1
17:00 30 J/kg 8.5 K 0 % 0 % 0 % 0 m²/s² 0 0 16.24 1
18:00 23 J/kg 8.7 K 0 % 0 % 0 % 0 m²/s² 0 0 16.77 1
19:00 14 J/kg 8.6 K 0 % 0 % 0 % 0 m²/s² 0 0 16.43 2
20:00 0 J/kg 8.7 K 0 % 0 % 0 % 0 m²/s² 0 0 16.05 1
21:00 0 J/kg 9.9 K 0 % 0 % 0 % 0 m²/s² 0 0 16.8 0
22:00 0 J/kg 11.7 K 0 % 0 % 0 % 0 m²/s² 0 0 18.03 0
23:00 0 J/kg 12.1 K 0 % 0 % 0 % 0 m²/s² 0 0 17.74 0
 04:32     22:18    Daglengte: 17:46 Woensdag 29 Jun
00:00 0 J/kg 12.8 K 0 % 0 % 0 % 0 m²/s² 0 0 17.9 0
01:00 0 J/kg 13.3 K 0 % 0 % 0 % 0 m²/s² 0 0 18.01 0
02:00 0 J/kg 14.1 K 0 % 0 % 0 % 0 m²/s² 0 0 18.6 0
Temp Baro Wind Neerslag
  EWN Forecast EWN WRFDA DWD ICON FMI HIRLAM MET Norway GFS
 04:29     22:19    Daglengte: 17:50 Vandaag
05:00 16.6° 1014.3 hPa 2.2 m/s 0.0 mm 15.1° 1013.3 hPa 2.0 m/s 1.2 mm 16.9° 1014.5 hPa 2.4 m/s -2.0 mm 15.4° 1014.4 hPa 2.0 m/s 0.0 mm 16.2° 1013.7 hPa 2.7 m/s
08:00 19.0° 1014.4 hPa 2.7 m/s 0.0 mm 20.5° 1013.4 hPa 3.5 m/s 1.8 mm 18.8° 1015.0 hPa 3.0 m/s 0.0 mm 19.0° 1014.2 hPa 2.6 m/s 0.0 mm 19.7° 1013.8 hPa 3.6 m/s
11:00 20.8° 1014.5 hPa 3.7 m/s 0.0 mm 24.8° 1013.5 hPa 3.9 m/s 1.8 mm 21.7° 1015.0 hPa 4.4 m/s 0.0 mm 20.4° 1014.1 hPa 3.2 m/s 0.0 mm 19.1° 1014.2 hPa 3.6 m/s
14:00 23.5° 1014.3 hPa 3.5 m/s 0.0 mm 26.7° 1013.3 hPa 5.2 m/s 1.9 mm 23.0° 1014.6 hPa 3.9 m/s 0.0 mm 24.6° 1014.1 hPa 3.2 m/s 0.0 mm 21.6° 1014.3 hPa 4.3 m/s
17:00 24.3° 1014.2 hPa 2.9 m/s 0.3 mm 22.8° 1013.4 hPa 4.3 m/s 2.9 mm 23.8° 1014.9 hPa 2.9 m/s 0.2 mm 24.7° 1013.9 hPa 2.7 m/s 0.0 mm 23.5° 1014.5 hPa 4.2 m/s
20:00 22.5° 1014.5 hPa 2.7 m/s 0.6 mm 19.2° 1014.7 hPa 3.9 m/s 6.7 mm 22.7° 1014.8 hPa 1.9 m/s 0.3 mm 22.7° 1014.5 hPa 2.5 m/s 0.0 mm 19.1° 1015.8 hPa 3.4 m/s
23:00 18.8° 1015.7 hPa 2.1 m/s 0.0 mm 16.4° 1014.7 hPa 1.2 m/s 19.3 mm 20.3° 1015.7 hPa 1.5 m/s 0.0 mm 17.9° 1016.5 hPa 4.1 m/s 0.0 mm 14.8° 1017.4 hPa 3.1 m/s
 04:30     22:19    Daglengte: 17:49 Morgen
02:00 16.9° 1015.7 hPa 2.5 m/s 0.0 mm 16.3° 1014.2 hPa 1.7 m/s 21.7 mm 18.0° 1015.7 hPa 1.8 m/s 0.0 mm 16.8° 1016.6 hPa 2.5 m/s 0.0 mm 13.6° 1017.4 hPa 1.1 m/s
05:00 16.5° 1015.0 hPa 1.8 m/s 0.0 mm 15.9° 1014.8 hPa 2.1 m/s 21.7 mm 17.9° 1014.9 hPa 0.8 m/s 0.0 mm 16.1° 1016.2 hPa 1.8 m/s 0.0 mm 13.8° 1017.0 hPa 0.9 m/s
08:00 18.3° 1014.0 hPa 2.2 m/s 0.0 mm 17.5° 1013.5 hPa 2.2 m/s 21.8 mm 19.2° 1013.9 hPa 2.5 m/s 0.0 mm 18.2° 1015.4 hPa 2.7 m/s 0.0 mm 15.7° 1016.3 hPa 2.8 m/s
11:00 20.8° 1013.9 hPa 3.4 m/s 0.0 mm 19.4° 1011.6 hPa 6.6 m/s 22.2 mm 21.2° 1014.2 hPa 2.5 m/s 0.2 mm 22.2° 1014.3 hPa 3.9 m/s 0.0 mm 19.6° 1015.9 hPa 3.5 m/s
14:00 19.3° 1013.8 hPa 3.2 m/s 4.4 mm 16.8° 1012.6 hPa 3.6 m/s 64.3 mm 19.0° 1014.0 hPa 3.3 m/s 0.6 mm 24.8° 1013.1 hPa 1.9 m/s 0.0 mm 15.6° 1015.3 hPa 6.5 m/s
17:00 17.0° 1013.6 hPa 4.2 m/s 25.6 mm 15.6° 1010.4 hPa 3.1 m/s 95.5 mm 15.8° 1015.2 hPa 4.8 m/s 7.5 mm 25.7° 1011.1 hPa 1.4 m/s 0.0 mm 16.0° 1015.0 hPa 4.7 m/s
20:00 16.2° 1014.5 hPa 5.1 m/s 32.1 mm 14.0° 1012.8 hPa 5.9 m/s 130.3 mm 15.2° 1015.8 hPa 4.2 m/s 5.3 mm 24.4° 1008.0 hPa 7.6 m/s 0.0 mm 14.1° 1016.3 hPa 4.5 m/s
23:00 14.0° 1016.7 hPa 2.7 m/s 0.0 mm 13.4° 1014.6 hPa 4.2 m/s 131.2 mm 15.2° 1016.9 hPa 2.7 m/s 0.0 mm 12.6° 1016.9 hPa 4.1 m/s
 04:31     22:18    Daglengte: 17:47 Dinsdag 28 Jun
02:00 13.8° 1017.0 hPa 3.0 m/s 0.0 mm 13.6° 1016.4 hPa 3.8 m/s 131.2 mm 14.9° 1017.0 hPa 2.9 m/s 0.0 mm 12.0° 1017.8 hPa 3.0 m/s
05:00 13.7° 1017.1 hPa 3.2 m/s 14.9 mm 12.1° 1015.8 hPa 4.1 m/s 131.2 mm 14.8° 1017.1 hPa 3.1 m/s 0.4 mm 11.6° 1017.8 hPa 3.5 m/s
08:00 16.1° 1018.2 hPa 4.0 m/s 0.0 mm 15.3° 1017.6 hPa 4.2 m/s 131.2 mm 16.3° 1018.4 hPa 4.0 m/s 0.0 mm 15.3° 1018.9 hPa 4.6 m/s
11:00 19.0° 1018.9 hPa 4.5 m/s 0.0 mm 18.5° 1018.6 hPa 4.4 m/s 131.2 mm 19.1° 1019.0 hPa 4.5 m/s 0.0 mm 19.4° 1019.7 hPa 5.2 m/s
14:00 20.8° 1018.9 hPa 4.7 m/s 0.0 mm 19.9° 1018.7 hPa 5.1 m/s 131.2 mm 21.0° 1018.9 hPa 4.6 m/s 0.0 mm 21.1° 1019.6 hPa 5.3 m/s
17:00 21.3° 1019.4 hPa 4.1 m/s 0.0 mm 19.7° 1019.4 hPa 4.4 m/s 131.2 mm 21.7° 1019.4 hPa 4.1 m/s 0.0 mm 20.9° 1019.7 hPa 4.9 m/s
20:00 18.8° 1019.6 hPa 3.5 m/s 0.0 mm 17.6° 1019.6 hPa 3.8 m/s 131.2 mm 19.1° 1019.6 hPa 3.5 m/s 0.0 mm 18.5° 1020.2 hPa 3.8 m/s
23:00 14.5° 1020.5 hPa 1.5 m/s 0.0 mm 12.2° 1020.7 hPa 1.3 m/s 131.2 mm 15.1° 1020.4 hPa 1.5 m/s 0.0 mm 12.6° 1021.0 hPa 1.3 m/s
 04:32     22:18    Daglengte: 17:46 Woensdag 29 Jun
02:00 12.7° 1020.3 hPa 0.9 m/s 0.0 mm 10.6° 1020.3 hPa 0.7 m/s 131.2 mm 13.2° 1020.3 hPa 1.0 m/s 0.0 mm 11.2° 1020.9 hPa 1.2 m/s
05:00 10.6° 1020.7 hPa 1.7 m/s 4.5 mm 10.6° 1020.7 hPa 1.7 m/s 4.5 mm
08:00 16.5° 1020.8 hPa 2.0 m/s 4.5 mm 16.5° 1020.8 hPa 2.0 m/s 4.5 mm
11:00 21.2° 1020.8 hPa 2.0 m/s 4.5 mm 21.2° 1020.8 hPa 2.0 m/s 4.5 mm
14:00 23.4° 1020.2 hPa 2.7 m/s 4.5 mm 23.4° 1020.2 hPa 2.7 m/s 4.5 mm
17:00 22.8° 1019.6 hPa 4.8 m/s 4.5 mm 22.8° 1019.6 hPa 4.8 m/s 4.5 mm
20:00 20.3° 1019.1 hPa 2.6 m/s 4.5 mm 20.3° 1019.1 hPa 2.6 m/s 4.5 mm
23:00 13.9° 1019.2 hPa 2.5 m/s 4.5 mm 13.9° 1019.2 hPa 2.5 m/s 4.5 mm
 04:32     22:18    Daglengte: 17:46 Donderdag 30 Jun
02:00 12.0° 1019.1 hPa 2.1 m/s 4.5 mm 12.0° 1019.1 hPa 2.1 m/s 4.5 mm
05:00 11.7° 1018.3 hPa 1.1 m/s 4.5 mm 11.7° 1018.3 hPa 1.1 m/s 4.5 mm
08:00 18.3° 1018.1 hPa 1.8 m/s 4.5 mm 18.3° 1018.1 hPa 1.8 m/s 4.5 mm
11:00 23.1° 1017.2 hPa 2.2 m/s 4.5 mm 23.1° 1017.2 hPa 2.2 m/s 4.5 mm
14:00 24.7° 1016.4 hPa 3.6 m/s 4.5 mm 24.7° 1016.4 hPa 3.6 m/s 4.5 mm
17:00 22.4° 1016.0 hPa 5.3 m/s 4.5 mm 22.4° 1016.0 hPa 5.3 m/s 4.5 mm
20:00 17.7° 1015.1 hPa 4.2 m/s 4.5 mm 17.7° 1015.1 hPa 4.2 m/s 4.5 mm
23:00 17.0° 1014.1 hPa 2.5 m/s 4.5 mm 17.0° 1014.1 hPa 2.5 m/s 4.5 mm
 04:33     22:17    Daglengte: 17:44 Vrijdag 01 Jul
02:00 17.4° 1013.2 hPa 2.3 m/s 4.5 mm 17.4° 1013.2 hPa 2.3 m/s 4.5 mm
05:00 17.6° 1011.6 hPa 2.2 m/s 4.5 mm 17.6° 1011.6 hPa 2.2 m/s 4.5 mm
08:00 19.7° 1010.9 hPa 3.8 m/s 4.6 mm 19.7° 1010.9 hPa 3.8 m/s 4.6 mm
11:00 22.1° 1010.3 hPa 4.7 m/s 4.6 mm 22.1° 1010.3 hPa 4.7 m/s 4.6 mm
14:00 25.4° 1010.0 hPa 4.2 m/s 4.6 mm 25.4° 1010.0 hPa 4.2 m/s 4.6 mm
17:00 25.1° 1009.7 hPa 5.0 m/s 4.6 mm 25.1° 1009.7 hPa 5.0 m/s 4.6 mm
20:00 19.7° 1010.9 hPa 7.1 m/s 5.0 mm 19.7° 1010.9 hPa 7.1 m/s 5.0 mm
23:00 15.4° 1013.1 hPa 5.6 m/s 5.3 mm 15.4° 1013.1 hPa 5.6 m/s 5.3 mm
 04:34     22:17    Daglengte: 17:43 Zaterdag 02 Jul
02:00 12.5° 1014.0 hPa 3.2 m/s 5.3 mm 12.5° 1014.0 hPa 3.2 m/s 5.3 mm
05:00 11.2° 1013.7 hPa 3.1 m/s 5.3 mm 11.2° 1013.7 hPa 3.1 m/s 5.3 mm
08:00 15.6° 1015.0 hPa 4.7 m/s 5.3 mm 15.6° 1015.0 hPa 4.7 m/s 5.3 mm
11:00 20.1° 1014.7 hPa 6.1 m/s 5.3 mm 20.1° 1014.7 hPa 6.1 m/s 5.3 mm
14:00 21.2° 1015.0 hPa 5.9 m/s 5.3 mm 21.2° 1015.0 hPa 5.9 m/s 5.3 mm
17:00 19.8° 1015.0 hPa 5.0 m/s 5.4 mm 19.8° 1015.0 hPa 5.0 m/s 5.4 mm
20:00 18.6° 1014.6 hPa 5.4 m/s 5.7 mm 18.6° 1014.6 hPa 5.4 m/s 5.7 mm
23:00 12.6° 1014.9 hPa 3.5 m/s 5.7 mm 12.6° 1014.9 hPa 3.5 m/s 5.7 mm
 04:35     22:16    Daglengte: 17:41 Zondag 03 Jul
02:00 12.7° 1013.9 hPa 4.4 m/s 5.7 mm 12.7° 1013.9 hPa 4.4 m/s 5.7 mm
08:00 16.7° 1012.1 hPa 6.2 m/s 5.7 mm 16.7° 1012.1 hPa 6.2 m/s 5.7 mm
14:00 20.8° 1010.9 hPa 6.7 m/s 5.8 mm 20.8° 1010.9 hPa 6.7 m/s 5.8 mm
20:00 17.2° 1010.2 hPa 6.4 m/s 6.5 mm 17.2° 1010.2 hPa 6.4 m/s 6.5 mm
 04:36     22:15    Daglengte: 17:39 Maandag 04 Jul
02:00 11.4° 1009.2 hPa 4.7 m/s 6.5 mm 11.4° 1009.2 hPa 4.7 m/s 6.5 mm
08:00 14.2° 1007.2 hPa 6.5 m/s 6.7 mm 14.2° 1007.2 hPa 6.5 m/s 6.7 mm
14:00 18.7° 1006.9 hPa 10.3 m/s 7.9 mm 18.7° 1006.9 hPa 10.3 m/s 7.9 mm
20:00 15.4° 1008.2 hPa 11.0 m/s 7.9 mm 15.4° 1008.2 hPa 11.0 m/s 7.9 mm
 04:37     22:14    Daglengte: 17:37 Dinsdag 05 Jul
02:00 13.3° 1009.0 hPa 11.4 m/s 7.9 mm 13.3° 1009.0 hPa 11.4 m/s 7.9 mm
08:00 15.5° 1011.0 hPa 10.9 m/s 7.9 mm 15.5° 1011.0 hPa 10.9 m/s 7.9 mm
14:00 18.6° 1013.3 hPa 11.2 m/s 7.9 mm 18.6° 1013.3 hPa 11.2 m/s 7.9 mm
20:00 16.3° 1013.9 hPa 8.7 m/s 8.1 mm 16.3° 1013.9 hPa 8.7 m/s 8.1 mm
 04:38     22:14    Daglengte: 17:36 Woensdag 06 Jul
02:00 12.9° 1015.0 hPa 3.7 m/s 0.0 mm
08:00 15.9° 1014.9 hPa 4.0 m/s 0.2 mm
14:00 20.2° 1015.5 hPa 4.2 m/s 0.4 mm
20:00 18.1° 1014.7 hPa 3.9 m/s 0.5 mm
 04:40     22:13    Daglengte: 17:33 Donderdag 07 Jul
02:00 13.3° 1014.5 hPa 2.7 m/s 0.1 mm
08:00 15.9° 1014.2 hPa 2.3 m/s 0.2 mm
14:00 20.4° 1014.7 hPa 2.8 m/s 0.4 mm
20:00 17.9° 1014.0 hPa 3.5 m/s 0.7 mm
 04:41     22:12    Daglengte: 17:31 Vrijdag 08 Jul
02:00 13.3° 1013.9 hPa 3.0 m/s 0.3 mm
08:00 16.0° 1013.5 hPa 2.8 m/s 0.8 mm
14:00 20.2° 1013.7 hPa 2.9 m/s 1.6 mm
20:00 17.7° 1013.2 hPa 3.8 m/s 1.4 mm
 04:42     22:11    Daglengte: 17:29 Zaterdag 09 Jul
02:00 12.9° 1013.2 hPa 3.5 m/s 0.2 mm
08:00 15.8° 1012.6 hPa 3.6 m/s 0.2 mm
14:00 20.3° 1012.5 hPa 3.9 m/s 0.8 mm
20:00 17.7° 1011.9 hPa 3.9 m/s 1.0 mm
 04:44     22:10    Daglengte: 17:26 Zondag 10 Jul
02:00 13.2° 1011.6 hPa 3.0 m/s 0.1 mm
08:00 15.6° 1010.6 hPa 3.0 m/s 0.7 mm
14:00 19.7° 1010.5 hPa 4.0 m/s 1.5 mm
20:00 17.9° 1010.2 hPa 4.0 m/s 1.2 mm
 04:45     22:08    Daglengte: 17:23 Maandag 11 Jul
02:00 13.2° 1010.2 hPa 2.9 m/s 0.4 mm
FMI Hirlam - 7.5 km EWN WRFDA - 12 km DWD ICON - 7 km GFS - 25 km Basiskaart






























































Updatetijd (Europe/Amsterdam) Resolutie Lengte Stap
FMI Hirlam 01:45, 07:45, 13:45, 19:45 7.5 km 49h 1h
EWN WRFDA 22:30, 04:30, 10:30, 16:30 12 km 73h 1h
DWD ICON 23:45, 05:45, 11:45, 17:45 7 km 75h 1h
GFS 02:15, 08:15, 14:15, 20:15 25 km 237h 3h
30+ mm
25-30 mm
20-25 mm
15-20 mm
10-15 mm
6-10 mm
4-6 mm
2-4 mm
1-2 mm
0.5-1 mm
0.2-0.5 mm
0.1-0.2 mm
30+ mm
25-30 mm
20-25 mm
15-20 mm
10-15 mm
6-10 mm
4-6 mm
2-4 mm
1-2 mm
0.5-1 mm
0.2-0.5 mm
0.1-0.2 mm
Sneeuwval
Natte sneeuw
Hagel
Vorst
30+ mm
25-30 mm
20-25 mm
15-20 mm
10-15 mm
6-10 mm
4-6 mm
2-4 mm
1-2 mm
0.5-1 mm
0.2-0.5 mm
0.1-0.2 mm
Sneeuwval
Natte sneeuw
Hagel
Vorst
Onweer
50 mm
40 mm
30 mm
26 mm
22 mm
18 mm
14 mm
10 mm
9 mm
8 mm
7 mm
6 mm
5 mm
4.5 mm
4 mm
3.5 mm
3 mm
2.5 mm
2 mm
1.5 mm
1 mm
0.8 mm
0.6 mm
0.4 mm
0.2 mm
0.05 mm
35°
30°
25°
20°
15°
10°
-5°
-10°
-15°
-20°
-25°
-30°
-35°
33> m/s
29 m/s
25 m/s
21 m/s
17 m/s
14 m/s
11 m/s
8 m/s
5 m/s
3 m/s
0 m/s
2600 J/kg
2400 J/kg
2200 J/kg
2000 J/kg
1800 J/kg
1600 J/kg
1400 J/kg
1200 J/kg
1000 J/kg
800 J/kg
600 J/kg
400 J/kg
200 J/kg
70 dBZ
65 dBZ
60 dBZ
55 dBZ
50 dBZ
45 dBZ
40 dBZ
35 dBZ
30 dBZ
25 dBZ
20 dBZ
15 dBZ
10 dBZ
5 dBZ
-1 K
-2 K
-3 K
-4 K
-5 K
-6 K
-7 K
-8 K
-9 K
950 m²/s²
900 m²/s²
850 m²/s²
800 m²/s²
750 m²/s²
700 m²/s²
650 m²/s²
600 m²/s²
550 m²/s²
500 m²/s²
450 m²/s²
400 m²/s²
350 m²/s²
300 m²/s²
250 m²/s²
200 m²/s²
150 m²/s²
100 m²/s²
46 m/s
44 m/s
42 m/s
40 m/s
38 m/s
36 m/s
34 m/s
32 m/s
30 m/s
28 m/s
26 m/s
24 m/s
22 m/s
20 m/s
16 m/s
12 m/s
8 m/s
4 m/s
30 m/s
28 m/s
26 m/s
24 m/s
22 m/s
20 m/s
18 m/s
16 m/s
14 m/s
12 m/s
10 m/s
8 m/s
6 m/s
4 m/s
2 m/s
3.0
2.8
2.6
2.4
2.2
2.0
1.8
1.6
1.4
1.2
1.0